RH
30 29 30 29 28 26 25 27 26 27 31 33 34 32 30 26 24 24 22 24 21 27 41 38 48 66 55 49 52 48 53 61 63 65 63 62 61 65 70 68 63 64 64 60 55 51 48 46 47 49 52 54 55 57 57 57 56 56 59 61 63 61 55 50 47 58 79 82 74 69 70 76 82 91 98 99 100 99 94 87 79 72 64 49 36
32 32 31 30 32 31 30 31 30 29 31 34 37 34 31 28 26 26 24 26 24 27 33 31 42 50 38 39 41 35 40 47 54 62 64 60 55 56 61 62 62 61 62 65 65 56 47 47 53 55 56 57 57 59 60 59 58 58 62 66 66 67 66 59 52 65 88 90 86 85 81 82 86 92 99 100 99 100 98 92 83 73 67 58 41
35 33 33 34 38 39 37 37 35 32 32 34 38 36 33 29 28 28 26 27 27 27 30 30 34 36 34 37 36 34 37 38 40 43 44 43 38 35 34 40 52 57 55 58 67 65 51 48 59 64 63 63 62 61 61 61 60 60 64 73 79 80 78 72 60 62 77 84 92 97 88 86 91 95 99 99 99 100 99 97 89 79 72 63 47
41 38 39 41 43 44 42 41 38 35 33 33 37 37 35 31 29 29 28 28 29 29 30 30 31 33 34 35 34 35 35 35 33 30 32 32 29 24 18 26 41 46 47 48 55 64 58 51 61 68 66 66 67 68 68 65 65 65 66 74 87 95 92 84 72 65 69 75 85 89 85 86 88 89 95 95 96 100 100 100 96 88 80 67 53
44 43 43 45 46 46 45 42 40 37 34 32 33 36 35 32 30 29 29 29 30 31 32 32 33 34 35 34 34 35 34 35 35 34 35 34 33 31 27 33 39 38 39 40 41 51 58 58 63 68 65 63 62 64 70 70 69 70 72 76 87 98 100 95 88 79 74 72 75 79 80 87 87 87 95 92 90 98 99 99 99 95 87 74 63
45 46 47 49 48 48 46 43 41 38 35 32 30 33 35 33 30 29 30 30 30 32 33 35 36 36 38 39 39 41 41 40 39 40 40 39 39 37 34 40 51 55 48 41 36 39 50 59 66 69 64 58 51 49 57 65 68 69 70 73 79 88 97 101 97 90 84 79 79 82 83 90 95 95 98 91 85 92 98 100 100 97 94 85 74
49 50 49 50 49 48 46 43 41 38 35 31 28 30 34 34 31 30 30 29 30 31 33 35 37 38 40 41 43 46 46 44 42 42 43 43 42 39 38 46 61 71 66 60 51 40 44 56 66 71 66 59 51 47 50 55 62 65 65 67 67 69 81 98 102 96 93 89 84 85 85 85 92 98 100 95 89 87 91 98 100 99 97 91 83
52 52 49 49 48 46 45 42 39 37 33 30 27 26 30 33 32 30 29 30 30 31 34 35 37 40 42 43 45 47 47 47 46 46 46 45 43 40 41 51 67 76 77 75 67 52 46 52 64 73 71 64 59 55 53 53 55 57 58 59 57 53 58 77 97 101 98 96 90 87 86 81 83 94 100 99 97 92 87 87 93 98 98 94 89
52 51 49 46 45 42 41 39 36 34 31 29 27 25 27 31 33 31 30 31 31 32 34 35 37 40 42 44 46 47 48 50 49 48 48 45 44 41 39 50 70 78 75 72 69 59 49 53 67 73 71 68 64 58 54 49 47 47 46 46 45 44 41 48 76 96 97 99 99 95 94 92 90 96 100 99 99 99 92 80 79 88 94 94 91
48 47 45 42 40 38 36 35 33 31 29 28 26 26 26 28 32 33 31 31 32 34 35 36 38 40 44 46 47 48 49 51 51 49 49 46 43 40 38 48 68 74 68 69 72 63 54 61 70 68 68 70 65 56 47 39 36 36 36 35 33 33 33 32 48 74 86 94 100 99 97 96 94 94 97 100 100 99 97 87 77 78 82 84 86
42 41 39 37 35 33 32 32 31 31 29 29 28 28 28 28 31 34 33 32 33 35 36 38 41 43 46 48 49 51 51 52 53 50 49 46 44 43 42 51 65 67 68 77 82 74 67 69 69 65 67 68 61 52 45 39 38 37 35 34 30 28 28 26 30 47 67 86 97 101 100 95 92 87 86 94 97 95 96 93 84 80 76 76 79
39 38 37 35 32 30 30 31 32 32 32 32 31 30 31 31 32 35 35 34 34 36 38 41 45 49 51 52 52 53 54 54 53 51 49 47 46 46 46 54 60 61 72 86 86 80 74 67 65 68 68 64 57 52 48 45 44 43 41 39 34 30 27 26 28 32 52 81 91 94 101 99 96 93 87 89 92 89 90 89 85 84 81 77 77
37 37 35 33 31 31 33 34 35 36 35 36 35 34 34 35 37 41 40 36 36 38 41 46 51 53 54 54 54 55 56 55 53 52 51 50 49 49 52 57 58 62 74 80 80 84 81 70 67 67 64 59 56 53 51 50 48 46 46 42 37 34 28 30 34 32 53 87 93 91 99 100 99 100 95 93 93 91 90 89 86 85 84 80 78
36 34 31 32 34 37 39 40 41 42 41 39 39 39 40 41 43 45 43 41 42 46 50 54 56 56 56 57 58 58 57 56 55 54 53 52 52 53 55 58 60 63 65 63 69 81 83 78 72 67 63 59 56 54 52 51 51 49 48 45 39 34 30 32 35 35 55 86 94 94 98 98 99 100 99 99 98 95 90 89 87 85 85 82 77
32 29 32 36 40 42 44 47 50 52 55 55 54 54 54 54 53 53 53 53 56 59 60 60 60 60 61 62 61 59 58 57 56 55 54 54 54 53 56 62 64 63 60 59 67 75 77 78 75 70 68 64 60 58 55 53 52 51 50 46 39 35 35 38 38 44 67 89 96 99 97 95 98 100 100 100 100 98 93 91 91 87 86 85 78
28 34 40 41 44 48 50 54 57 57 61 64 61 57 55 56 58 60 62 63 65 67 66 66 66 66 65 63 60 58 58 57 54 53 53 53 54 53 56 61 62 62 61 61 66 69 67 67 66 66 66 64 62 60 56 54 52 51 49 45 39 37 39 43 46 59 84 97 98 100 99 95 96 99 100 100 99 100 99 97 95 89 86 85 81
35 42 43 43 49 54 52 50 51 48 47 48 46 44 44 48 58 67 70 70 71 71 70 69 68 66 63 60 59 57 56 54 52 53 54 54 57 59 59 59 57 59 60 60 61 61 59 56 56 57 56 55 56 55 53 53 52 50 47 44 43 43 45 49 55 70 90 99 99 100 100 98 97 99 100 100 100 100 99 100 98 93 89 85 83
42 41 43 50 53 52 46 42 43 41 40 41 42 46 50 57 70 77 75 73 72 68 67 66 64 63 60 58 58 55 54 53 53 55 56 58 63 62 59 58 57 57 57 57 57 55 54 52 51 52 51 51 55 56 53 50 49 48 48 51 54 54 55 57 60 74 90 98 99 100 100 99 99 99 100 99 100 100 99 100 100 98 97 90 85
42 39 48 54 49 44 41 40 42 42 44 45 46 48 52 62 76 78 72 67 62 58 60 62 62 61 59 57 55 53 53 54 56 55 53 56 63 62 56 54 53 53 53 52 51 49 49 48 47 48 50 56 63 64 59 53 52 56 60 65 67 66 67 69 69 80 95 99 99 100 100 100 100 100 100 100 99 100 100 99 100 100 100 98 92
41 45 51 48 43 42 42 44 45 46 49 48 46 47 49 56 63 65 61 56 53 53 56 60 61 60 57 55 53 53 56 55 54 52 49 52 60 61 58 55 52 51 51 49 47 46 46 46 45 45 48 57 67 70 68 64 63 67 70 72 74 74 76 80 80 84 93 98 99 100 100 100 100 100 100 100 99 100 100 99 100 100 100 101 98
41 51 48 43 44 44 46 49 48 48 51 49 47 49 51 52 52 51 52 54 57 58 56 57 58 57 55 54 55 55 56 55 52 51 50 53 57 56 53 52 50 49 49 48 47 47 48 48 48 48 49 53 58 60 62 66 69 74 77 78 79 78 79 83 85 85 88 94 98 100 100 99 100 100 99 100 100 100 100 100 100 100 100 100 100
41 48 43 43 47 47 49 51 48 47 48 49 49 50 52 54 55 56 56 56 57 56 54 53 55 57 57 57 58 57 55 54 53 52 51 51 52 51 50 50 51 51 50 50 51 52 53 55 56 56 57 57 56 53 51 54 61 68 73 78 80 80 81 83 83 82 82 88 95 100 100 99 99 100 100 100 100 100 100 100 100 100 100 99 100
39 40 39 45 49 49 49 47 47 48 49 51 54 55 56 55 56 58 57 55 52 51 53 56 58 60 60 58 58 57 56 55 53 52 52 53 53 53 54 56 56 55 55 55 55 56 58 60 61 62 65 66 64 59 53 52 57 64 75 85 87 85 85 85 86 85 83 88 95 99 99 100 100 99 100 100 100 100 100 100 100 100 100 100 100
38 35 43 53 53 52 52 50 50 51 53 54 53 54 55 55 53 53 54 56 57 57 59 61 62 61 59 58 57 56 57 56 56 56 57 58 59 59 60 61 60 59 58 57 57 58 58 59 60 61 65 70 70 66 65 66 70 79 89 94 94 92 91 89 87 89 90 93 99 100 98 98 100 100 100 100 100 100 100 100 100 100 99 100 100
40 41 52 59 56 53 53 55 54 52 53 53 52 52 53 56 57 55 57 60 61 62 62 62 62 60 58 58 57 57 57 58 60 63 64 64 65 65 66 65 63 61 59 58 58 59 59 60 60 64 74 81 82 80 81 80 79 83 87 90 91 90 89 87 84 85 88 88 94 99 99 98 99 100 100 100 100 100 100 100 100 100 100 100 100
43 50 58 58 55 52 54 56 54 54 55 55 57 57 54 57 60 59 61 62 62 63 62 60 60 59 59 59 58 58 59 60 63 65 67 68 69 69 69 67 65 63 62 62 64 65 67 68 68 72 83 90 85 80 80 78 74 72 72 77 82 80 80 84 87 88 86 81 82 89 96 99 99 99 100 100 100 100 100 100 100 100 100 100 100
46 56 59 56 55 54 56 58 56 57 59 59 60 58 57 59 61 60 61 61 62 62 61 61 62 61 61 61 61 62 63 63 64 65 67 68 68 68 68 68 69 70 71 72 74 75 76 76 75 74 81 85 77 67 64 63 63 62 60 63 71 77 78 77 80 86 83 77 75 78 86 98 101 99 100 100 99 100 100 99 100 100 100 100 100
54 62 61 58 56 56 59 60 60 61 61 62 62 59 60 62 61 61 62 61 63 63 63 64 64 64 65 65 66 68 68 68 69 69 70 71 72 73 74 74 75 77 80 81 82 83 82 82 82 81 82 83 78 69 60 53 51 51 52 55 61 70 73 66 68 81 82 74 71 71 77 92 101 100 99 100 100 100 100 100 99 100 100 100 100
62 66 63 60 57 58 62 62 63 64 64 65 64 62 63 63 63 63 63 63 65 65 66 66 66 67 68 70 71 72 73 75 75 76 78 80 82 83 83 83 84 84 86 88 89 90 90 87 86 86 86 85 84 82 75 68 64 57 50 47 47 53 61 61 63 76 80 73 70 75 84 92 98 101 100 100 100 99 99 100 100 100 100 100 100
66 66 62 60 59 62 65 63 65 68 68 67 66 65 65 64 65 65 65 66 67 67 68 68 68 71 72 74 76 77 78 80 81 84 87 88 89 91 91 91 92 92 93 94 95 95 96 95 93 93 93 92 92 91 91 93 93 86 75 63 53 49 54 60 67 75 81 75 70 79 90 88 88 98 101 98 100 101 99 100 100 99 100 100 100
68 66 62 60 60 65 67 67 70 71 69 69 68 68 67 66 67 67 67 68 68 69 70 70 72 74 76 78 79 80 83 85 88 91 92 94 95 96 97 97 97 98 98 97 98 99 99 99 98 98 99 99 96 95 98 101 101 100 98 92 84 74 69 70 75 80 84 81 75 82 90 82 77 90 101 100 99 100 99 100 100 99 100 100 99
69 66 64 61 61 69 72 71 72 71 70 71 71 70 69 68 68 68 69 70 70 72 73 73 76 78 79 81 82 85 89 91 94 96 96 98 99 98 99 99 99 100 99 99 100 100 101 100 98 99 99 99 98 97 100 101 99 100 100 100 100 97 93 88 83 83 86 87 84 86 91 86 78 83 96 100 100 100 100 100 100 100 100 99 99
66 65 65 63 63 70 73 71 71 71 72 73 73 73 72 70 70 70 71 72 72 74 76 77 80 81 83 85 86 89 93 95 97 99 99 100 100 100 100 100 101 101 100 100 100 100 100 99 99 99 99 100 100 100 101 100 100 100 100 100 100 99 101 98 89 85 87 88 87 85 88 93 90 88 95 101 99 97 99 100 100 100 101 99 99
64 64 65 65 66 70 72 71 71 73 74 75 75 76 74 72 72 72 73 75 76 77 78 80 83 85 86 88 90 92 96 98 99 100 101 101 100 101 101 99 101 101 100 100 100 100 100 100 100 100 100 101 100 99 101 100 99 100 99 100 101 99 100 101 96 92 91 89 88 85 84 91 96 95 96 99 99 96 96 100 100 98 98 97 99
64 65 65 67 70 71 71 71 73 75 77 78 78 78 76 74 74 74 76 78 79 79 81 84 86 88 90 91 94 97 99 100 101 100 101 100 99 100 100 100 100 100 100 100 100 100 101 101 101 101 100 100 98 97 101 101 99 100 100 99 100 100 99 100 100 99 97 94 91 88 86 88 95 98 95 96 100 98 96 100 100 98 95 94 95
64 65 66 70 72 71 71 72 75 77 78 79 81 80 79 76 76 77 79 81 82 82 84 88 89 91 94 96 98 101 102 102 102 102 101 100 100 100 100 101 101 100 100 100 100 101 102 101 101 101 101 100 96 93 97 100 99 100 100 100 100 100 100 100 100 99 100 99 97 94 91 88 92 99 95 93 99 101 98 100 101 99 98 97 94
63 65 68 72 72 71 72 74 77 79 79 81 84 83 81 78 78 81 83 83 84 86 88 91 93 95 98 100 101 103 103 102 102 102 101 101 100 101 101 101 101 101 100 100 100 101 101 101 100 99 100 100 94 89 93 99 100 100 100 100 100 100 99 100 100 99 100 100 99 97 95 89 90 97 96 94 97 100 99 100 100 100 100 100 96
65 68 71 73 72 72 75 78 79 81 82 84 87 85 82 81 81 84 85 85 86 89 92 94 96 98 100 101 101 102 102 102 102 102 101 101 101 101 102 101 101 101 100 100 101 101 100 100 99 97 98 100 96 90 91 97 99 100 100 100 100 100 100 99 100 100 100 100 99 99 98 94 90 91 95 99 99 98 100 100 99 100 100 100 100
67 70 72 73 73 74 77 80 80 82 85 88 89 86 82 83 85 86 87 88 89 92 94 97 99 100 100 100 101 102 102 102 103 102 101 102 102 102 102 101 101 101 101 101 101 101 99 97 97 96 96 99 97 92 91 94 97 99 100 100 99 100 100 100 100 100 100 100 99 97 98 98 93 86 89 98 99 97 99 99 96 99 100 98 99
69 72 74 74 75 77 79 81 82 85 89 90 89 86 84 85 88 88 89 91 93 95 98 100 101 100 100 101 101 102 102 102 102 102 102 101 102 102 102 102 101 100 100 101 102 102 100 97 96 97 96 96 97 95 93 93 96 99 100 99 99 100 100 100 100 100 100 100 99 97 95 96 97 90 87 94 97 95 96 95 95 99 99 95 95
71 73 75 75 78 80 80 82 86 89 91 91 89 87 86 88 90 90 92 95 98 100 100 101 101 100 100 101 101 101 101 101 101 102 102 100 100 101 102 102 102 101 100 101 100 100 101 98 96 97 95 92 93 95 95 92 92 96 100 99 99 100 100 99 99 99 100 100 100 98 93 90 94 95 92 92 92 90 90 92 94 94 91 89 93
72 74 76 78 80 81 83 86 89 91 91 91 89 88 90 93 93 93 96 99 101 102 101 101 101 100 100 101 101 100 101 101 100 101 102 101 99 99 101 102 102 101 100 100 98 97 99 97 93 93 92 89 91 97 97 93 89 92 97 98 97 98 98 98 97 96 97 98 99 100 95 90 89 91 93 93 90 87 85 87 90 89 87 90 95
75 76 78 80 82 84 87 89 91 92 92 91 92 93 94 96 96 97 99 101 102 102 101 101 100 100 100 99 99 100 100 100 100 100 101 101 99 99 100 101 102 101 100 99 97 96 97 95 92 92 90 87 92 99 99 97 95 95 98 99 98 97 96 96 97 95 93 92 93 95 97 95 92 91 91 91 89 86 84 85 87 88 90 96 98
78 79 80 82 85 87 90 91 92 93 93 94 96 97 97 98 99 100 101 101 103 102 101 101 100 100 100 98 98 99 99 99 100 99 100 101 100 100 101 100 100 100 100 100 98 96 96 94 92 92 91 90 95 99 96 95 96 97 97 98 99 99 97 95 96 96 93 89 87 86 89 93 95 96 93 87 83 83 85 86 88 89 92 97 99
81 82 83 85 88 90 91 93 94 94 94 96 98 99 101 101 100 100 101 101 103 102 101 101 100 99 99 99 99 99 98 99 99 98 100 102 101 101 101 100 100 100 99 99 96 93 94 93 93 95 96 96 99 100 95 93 92 91 90 93 96 100 100 99 98 96 94 93 91 88 89 91 95 98 98 96 93 92 92 92 92 93 95 98 100
84 85 86 88 90 92 94 95 96 94 94 97 99 99 101 101 100 101 102 102 102 102 101 101 100 99 99 99 99 99 99 99 98 98 99 100 99 100 101 100 100 100 99 98 96 94 94 94 95 97 99 99 100 100 98 96 96 95 95 94 95 97 98 99 99 97 96 97 97 97 97 97 96 95 95 96 97 97 98 98 98 98 98 99 100
87 87 88 90 92 94 96 98 98 96 95 97 99 98 99 100 101 101 102 103 102 101 101 100 100 99 99 99 100 100 99 99 99 99 99 98 97 99 101 100 100 100 99 99 98 97 97 98 98 98 98 97 97 98 100 99 98 99 100 99 99 99 98 97 97 96 96 97 98 99 99 98 96 94 94 95 94 94 95 97 97 99 99 100 100
89 90 90 92 94 96 98 100 100 99 98 98 97 97 98 100 100 101 102 102 101 100 101 100 100 100 100 100 100 100 100 100 99 99 100 99 98 99 100 100 100 101 100 100 100 99 99 100 99 98 97 96 96 97 99 100 99 100 100 100 100 100 99 100 99 97 96 96 95 96 97 97 98 97 97 97 96 95 94 92 92 95 98 100 100
91 92 92 93 95 97 99 101 101 101 100 99 98 98 99 100 101 101 101 102 101 101 101 100 100 100 100 100 100 100 100 100 100 98 97 96 97 101 102 100 99 100 100 100 100 100 99 100 100 99 98 97 98 99 100 99 99 99 99 100 100 99 100 101 99 97 97 98 97 95 95 97 99 100 99 98 97 97 96 94 92 91 93 97 100
92 94 94 95 96 98 100 101 101 102 102 101 100 99 99 100 100 100 101 101 101 101 101 101 101 101 100 101 101 100 100 100 100 100 98 93 89 93 99 101 100 100 101 101 100 100 100 100 100 100 100 99 99 100 100 100 100 100 100 100 100 100 100 100 96 94 97 99 99 99 99 99 99 100 100 100 99 99 99 99 98 92 88 92 98
94 95 96 97 98 99 101 102 102 102 102 101 100 99 99 100 100 100 101 102 101 101 102 102 101 101 101 101 101 101 101 101 100 100 101 98 91 88 91 96 98 99 100 100 100 100 100 100 100 99 100 100 100 100 100 100 100 99 99 100 100 100 100 99 96 95 96 98 99 99 100 100 100 99 100 100 100 100 100 100 101 98 95 96 99
Wind_Speed
11 12 10 12 14 14 14 14 16 14 10 11 12 12 13 14 16 17 19 20 21 19 15 15 14 12 14 15 16 18 18 18 20 21 22 21 21 20 19 19 19 19 21 22 21 21 21 20 19 18 16 15 14 12 11 10 10 10 10 11 12 14 14 11 10 11 13 13 15 16 18 20 22 22 26 31 34 36 39 41 42 44 46 45 44
9 8 8 11 13 14 14 14 15 15 12 12 12 12 11 11 12 13 15 17 18 17 15 15 12 12 14 14 16 19 17 17 18 18 20 22 22 22 22 22 21 21 21 21 22 23 22 20 19 18 17 15 14 13 11 11 10 10 10 10 11 13 14 12 10 10 8 8 9 10 12 16 19 21 25 29 32 35 37 39 40 42 45 46 45
6 7 7 9 12 13 14 14 15 15 14 14 14 13 12 11 10 10 12 14 15 15 15 16 15 15 16 16 17 18 16 16 18 19 20 22 24 25 26 27 25 25 23 21 22 23 23 21 19 18 16 15 14 13 12 11 11 10 9 10 10 12 13 13 11 10 9 9 7 6 6 7 9 14 21 28 31 32 35 38 39 41 44 46 45
5 6 7 9 11 12 14 16 16 16 16 16 18 17 15 13 11 10 11 12 12 13 14 16 16 17 18 18 20 19 19 20 22 25 26 28 30 30 29 28 28 29 27 24 24 23 23 22 20 18 17 15 14 13 12 12 11 11 10 10 9 9 12 12 11 11 12 10 6 4 4 5 6 6 11 22 27 29 33 36 38 40 42 43 44
4 6 8 10 12 13 15 17 18 18 19 19 21 21 19 17 14 12 12 12 12 12 13 14 15 17 18 19 21 22 24 25 25 26 28 30 32 32 31 29 29 31 30 28 27 24 23 23 21 18 17 15 15 14 13 12 12 11 11 11 9 8 10 12 13 12 14 13 11 8 5 5 5 2 3 10 17 25 31 34 35 38 39 39 42
5 7 10 12 14 15 16 19 20 21 22 22 23 23 23 21 18 15 13 12 13 14 14 14 15 15 15 16 16 17 19 21 21 22 26 28 29 32 33 31 29 29 29 29 29 26 23 23 22 20 19 17 16 16 14 13 13 13 12 12 11 10 10 11 13 14 15 17 18 16 13 10 8 5 5 4 7 17 24 27 32 36 37 37 40
7 9 12 13 15 16 18 21 22 23 25 25 24 25 26 25 21 17 15 15 15 15 15 15 16 15 15 14 13 11 12 16 20 22 25 27 29 32 33 30 27 26 27 27 28 27 23 22 23 22 20 18 17 16 15 14 13 13 14 14 14 13 11 10 12 13 14 16 19 21 22 22 19 11 6 4 4 7 12 17 24 29 32 34 38
7 8 11 14 16 18 20 24 25 26 27 26 26 27 28 28 25 20 18 18 17 16 16 17 17 16 15 14 13 13 13 15 18 20 23 26 28 31 31 29 26 24 25 26 28 28 24 22 23 23 20 18 17 15 14 13 13 14 14 15 15 15 13 12 11 12 13 15 17 20 21 22 23 19 15 11 6 4 6 9 15 21 26 30 34
9 10 12 15 18 22 24 26 27 28 28 29 29 30 30 30 29 24 21 21 19 17 17 18 18 18 16 15 15 16 15 16 18 20 22 24 26 29 29 27 25 24 25 27 28 28 25 22 23 22 20 18 16 15 14 13 13 14 14 15 16 17 16 15 13 12 14 15 16 18 18 18 18 18 18 16 10 7 6 5 7 11 17 26 32
10 12 15 19 22 25 26 27 29 30 30 31 32 33 33 32 32 30 27 24 21 19 18 19 20 19 18 16 16 17 18 18 20 20 21 22 24 27 27 25 23 25 28 30 29 28 25 23 24 22 20 18 17 16 15 14 13 12 13 14 16 17 19 20 18 15 15 17 18 18 17 15 13 12 13 14 12 10 8 7 6 5 7 17 28
10 14 17 20 23 25 28 29 30 31 31 32 33 35 36 36 35 35 32 27 23 21 20 20 20 18 16 15 15 17 18 19 19 21 22 23 23 24 24 23 22 25 27 28 28 27 24 22 22 20 18 18 17 17 17 16 15 14 14 15 16 18 19 21 21 20 18 18 19 20 19 18 16 13 13 13 11 10 8 6 7 8 9 12 17
11 12 14 18 23 27 30 29 28 28 29 30 31 33 35 36 35 35 34 28 23 22 22 21 19 15 12 13 14 16 17 18 20 22 24 24 24 24 23 22 22 23 22 19 20 20 19 17 16 16 16 16 16 16 16 16 16 16 17 18 19 20 20 21 22 24 22 19 19 21 22 22 21 20 19 18 15 13 10 6 6 8 9 11 14
11 10 14 19 23 26 27 27 27 28 28 30 31 32 32 33 32 32 31 26 23 24 22 18 14 10 11 14 16 18 18 20 21 22 23 23 24 24 23 22 21 20 18 19 19 16 14 14 14 15 15 15 16 16 17 17 17 18 19 20 22 22 23 22 23 25 24 21 20 21 21 23 24 22 23 22 19 18 14 9 8 9 7 9 12
12 13 15 19 21 24 25 27 28 29 30 31 31 30 30 30 27 24 23 23 24 22 16 10 9 12 15 16 18 19 20 21 21 22 23 24 24 24 24 23 22 20 20 23 22 19 17 14 14 15 15 16 17 17 19 20 20 21 22 23 24 24 24 24 24 26 25 24 22 21 21 23 25 24 24 23 20 20 18 13 10 9 8 7 7
13 14 16 19 23 26 26 26 28 30 32 31 29 30 31 29 27 25 24 23 18 12 9 11 14 16 17 18 20 20 21 21 22 24 25 25 24 24 24 21 20 19 20 21 20 19 20 18 17 18 18 18 19 20 21 22 23 24 25 26 27 26 25 24 25 25 24 25 24 23 23 24 25 25 25 24 22 22 22 19 13 8 7 6 5
13 12 14 20 25 25 25 26 28 31 32 31 31 32 33 32 30 26 21 17 15 14 15 16 16 17 18 19 20 21 22 24 26 27 26 25 25 24 23 22 21 20 20 20 18 16 15 16 18 19 20 20 21 22 22 23 25 26 27 28 29 27 26 25 25 24 22 24 25 25 23 24 25 27 27 25 24 24 24 23 20 13 8 6 5
12 12 14 20 23 22 24 26 28 31 33 34 35 34 34 33 27 20 17 17 18 19 18 17 17 19 20 21 23 24 26 27 28 27 27 25 23 21 20 20 19 19 18 16 14 13 13 14 17 19 21 22 22 23 24 24 26 28 28 29 29 28 27 26 25 23 22 23 24 24 24 23 25 27 29 28 26 25 25 24 24 21 15 8 6
13 14 16 19 20 21 24 26 27 31 33 33 34 33 34 31 22 17 18 19 20 20 20 20 21 22 23 25 27 28 28 27 26 25 24 22 19 17 15 14 14 15 15 14 13 15 17 18 19 20 22 23 23 23 24 25 27 29 29 29 29 28 27 27 27 25 23 22 23 24 24 24 24 25 27 29 28 27 26 25 24 24 22 16 9
13 15 15 17 21 24 27 28 28 30 29 29 31 32 34 32 24 22 23 22 24 25 24 24 23 24 25 27 29 29 27 25 23 21 21 19 17 16 15 15 15 16 17 17 18 19 19 20 21 22 22 22 22 22 23 24 26 27 28 27 27 27 26 26 26 24 22 21 23 25 24 24 24 24 27 29 29 28 27 26 24 23 24 23 19
14 13 13 19 25 28 29 29 30 30 27 28 31 31 32 31 28 26 26 27 28 28 27 26 25 26 27 28 29 27 25 22 20 20 20 19 17 16 16 16 16 17 18 19 20 21 21 21 22 23 23 22 21 21 21 22 23 25 26 26 26 26 25 25 24 24 22 22 24 25 25 25 23 24 26 28 28 27 27 26 24 22 22 24 25
14 12 16 24 27 28 28 28 30 31 29 30 32 30 30 31 31 29 28 27 28 28 28 28 28 28 28 28 27 24 22 21 20 20 21 19 17 17 18 18 19 20 20 20 21 21 21 22 22 23 23 23 23 22 22 21 22 22 23 24 25 25 24 23 23 23 22 23 24 25 26 26 24 24 26 26 26 27 26 25 23 22 21 22 24
14 15 22 26 26 27 29 30 33 33 32 32 32 29 28 29 29 27 26 27 28 29 30 30 29 28 27 26 24 22 21 21 21 21 21 21 20 21 21 22 22 21 21 21 21 21 21 21 22 23 23 24 25 26 26 26 24 24 23 22 22 22 23 23 22 24 24 24 24 25 26 26 25 26 28 28 27 27 26 24 23 22 20 21 22
16 21 24 22 23 26 29 32 34 33 31 31 31 29 27 28 28 27 28 30 31 31 30 28 27 26 26 25 23 21 21 21 21 22 23 24 24 24 23 23 22 21 21 20 20 20 19 20 21 22 23 24 24 26 27 28 27 25 22 20 19 20 20 21 22 23 25 25 25 26 26 26 25 26 29 30 28 27 26 24 23 23 21 20 21
18 23 22 19 22 26 29 32 31 30 30 31 31 30 28 28 29 30 30 30 30 29 27 26 26 26 25 24 23 23 23 22 23 25 26 26 25 24 24 23 22 21 20 19 19 18 19 20 20 22 24 25 24 23 23 23 23 20 17 16 17 17 18 21 23 23 23 22 23 25 25 25 26 26 27 28 27 26 25 24 23 22 22 21 21
18 21 18 18 22 27 31 30 28 29 32 32 33 32 30 29 30 30 30 29 28 27 27 26 26 26 25 25 25 25 25 25 26 27 27 26 25 24 24 23 21 20 19 19 19 20 21 22 21 22 22 20 17 16 16 17 18 17 15 16 17 17 19 21 24 24 23 23 22 24 25 26 27 28 27 27 25 25 25 24 23 22 22 22 21
19 18 16 18 23 28 30 27 28 32 33 33 32 31 29 29 29 29 29 29 28 27 27 27 26 26 26 25 26 25 26 27 26 26 26 25 24 24 23 22 21 21 21 21 22 22 23 22 22 21 19 16 17 19 20 20 21 21 20 20 20 20 21 21 22 23 23 24 24 23 24 28 30 29 28 28 27 26 25 24 23 23 22 21 20
18 15 15 18 23 27 28 27 30 33 32 32 30 29 29 29 30 30 29 29 29 27 27 27 26 26 26 25 26 26 26 26 26 26 26 25 24 23 23 22 22 22 23 23 23 23 23 23 22 22 20 21 24 27 26 26 26 26 26 26 24 23 23 24 25 24 24 25 25 24 24 27 32 32 30 30 29 26 24 24 24 24 22 21 20
16 13 15 18 21 25 27 29 32 33 32 31 29 28 29 29 29 30 29 29 29 28 28 28 27 27 26 26 26 26 25 26 26 26 26 25 25 24 23 23 22 22 22 22 22 23 24 23 23 23 24 26 28 29 30 31 31 31 30 30 29 28 27 29 28 26 24 25 26 25 25 25 29 32 32 31 31 28 23 22 23 23 22 22 20
16 15 16 18 21 24 26 30 32 32 32 31 30 29 29 29 30 30 30 30 30 29 29 28 27 27 26 27 26 26 25 25 26 26 26 26 25 24 24 23 22 22 21 21 21 22 23 24 26 26 27 28 29 29 30 30 31 32 33 33 34 33 32 32 30 27 25 26 26 25 25 24 24 29 32 32 32 31 26 22 21 21 22 22 20
16 16 17 20 24 25 27 31 32 31 31 31 30 30 30 30 31 30 31 31 30 29 29 28 28 27 27 27 27 26 26 26 26 26 26 26 25 24 23 23 22 22 21 21 20 19 19 21 23 25 25 26 28 29 28 26 27 29 31 32 34 35 34 32 30 27 25 26 26 25 25 24 22 24 29 31 32 31 29 25 23 21 21 22 20
16 16 18 21 25 26 28 31 30 30 31 30 30 31 30 30 31 31 31 31 30 29 29 28 28 28 28 28 27 27 27 27 27 26 26 26 25 24 23 23 22 20 20 19 19 18 18 19 21 22 23 25 28 29 27 26 26 26 28 28 29 32 33 32 31 27 25 25 26 24 24 25 23 22 24 27 29 29 28 27 26 23 22 23 22
17 17 17 21 25 25 27 30 31 31 31 30 31 31 30 31 31 32 32 31 30 29 28 28 29 28 28 28 28 28 27 27 27 26 26 26 25 25 24 23 21 20 20 19 19 20 21 22 23 24 25 27 28 28 25 25 26 25 26 26 26 27 28 30 32 30 26 24 24 23 22 24 24 22 22 25 26 26 26 27 27 27 25 24 24
16 17 18 22 25 26 28 31 31 31 31 31 31 30 30 31 31 32 32 30 30 29 28 29 28 28 29 28 28 28 28 28 27 27 27 27 26 26 25 23 23 22 21 21 21 22 22 23 24 25 26 28 28 27 24 24 24 24 24 25 25 26 26 27 31 32 29 26 25 23 22 23 24 24 22 24 26 26 26 26 26 26 25 24 25
14 17 21 24 26 27 29 31 31 31 32 32 30 29 30 31 31 31 31 30 29 29 28 28 28 28 28 28 28 29 29 29 29 29 29 28 27 26 26 26 25 23 23 23 22 23 23 24 24 25 26 27 27 25 23 22 22 22 23 24 25 27 26 27 29 31 30 29 27 26 24 22 23 24 23 23 25 26 25 25 25 24 23 24 25
14 18 23 26 27 28 30 31 31 31 32 31 30 30 31 31 30 31 30 30 30 29 29 28 28 29 29 28 29 29 29 30 31 30 30 30 29 28 28 28 27 25 25 24 24 24 25 25 25 23 24 26 25 23 21 21 22 21 21 22 25 27 28 28 28 28 29 29 28 26 25 24 23 24 24 23 24 26 25 24 23 23 23 23 25
18 21 24 26 27 28 30 31 31 32 32 31 31 31 32 31 30 30 30 30 30 29 29 29 30 30 30 30 31 31 31 32 33 33 33 33 32 31 31 31 30 29 28 26 25 26 26 26 26 23 23 25 25 22 19 19 20 19 19 21 25 28 29 30 30 29 28 28 28 27 26 25 24 25 25 24 23 24 24 24 22 21 22 22 23
22 24 25 26 26 27 29 30 31 32 32 31 32 32 31 31 31 30 30 30 29 29 30 30 31 31 31 32 33 33 34 36 36 36 36 34 33 34 34 33 31 31 30 28 28 28 26 26 26 24 23 25 25 22 19 19 19 18 18 18 20 25 30 33 33 31 28 26 27 28 28 26 25 25 26 25 23 22 22 22 20 19 19 20 22
23 24 25 26 27 27 28 29 30 31 32 32 32 31 30 30 30 30 30 30 29 30 31 32 33 33 33 35 36 36 37 38 38 38 36 34 34 35 34 33 31 30 30 29 29 29 29 26 26 25 24 23 24 22 19 18 18 17 16 16 15 16 23 30 31 29 29 28 27 28 28 28 28 27 26 23 21 21 21 21 20 18 17 18 21
23 24 25 26 27 27 28 29 29 31 33 33 32 30 29 29 29 30 30 30 30 32 33 34 34 35 35 37 38 37 37 37 38 37 36 34 34 34 33 32 30 28 29 29 29 29 29 28 26 26 24 21 22 21 18 15 14 14 14 15 14 13 15 21 25 26 27 29 29 28 28 29 30 30 29 24 20 21 21 21 20 18 16 18 22
24 24 25 26 26 26 27 28 29 31 33 33 31 29 28 29 29 30 29 30 32 34 35 35 35 36 37 37 37 36 36 36 36 36 35 35 33 33 32 31 30 29 29 29 28 26 27 27 26 25 24 22 21 19 17 13 12 12 13 13 13 13 12 13 17 21 24 27 28 29 29 29 30 31 30 26 23 22 22 22 22 19 18 21 24
24 24 25 25 25 25 27 28 29 32 33 31 30 29 29 29 29 29 30 32 35 37 37 36 37 38 39 38 36 35 35 35 34 33 34 35 33 32 31 29 29 29 27 27 28 25 25 27 27 25 24 23 19 17 15 13 11 11 12 12 11 13 13 13 13 15 19 23 26 28 29 29 29 30 30 28 27 26 24 24 24 24 24 25 24
23 23 24 25 25 26 27 28 29 31 32 30 29 29 29 29 29 30 32 35 37 38 38 39 39 40 39 37 36 34 34 34 33 32 32 33 33 31 30 28 27 26 26 27 28 27 25 28 29 27 25 22 19 16 15 12 11 10 11 10 10 11 12 13 13 12 13 15 19 25 28 29 29 29 30 30 30 29 28 27 27 28 28 27 25
23 23 24 25 25 26 27 29 30 30 30 29 29 29 30 30 30 33 36 38 38 38 39 41 41 40 38 37 36 34 33 33 32 31 31 31 31 30 29 26 24 24 24 26 27 27 26 27 28 27 26 23 20 18 15 12 10 11 11 11 11 10 11 12 13 14 14 13 14 16 20 24 27 29 30 31 30 29 29 30 31 31 29 28 27
23 24 25 24 25 26 28 29 29 30 29 28 28 30 31 31 33 36 39 39 38 39 40 41 41 39 38 37 36 35 33 32 31 31 30 29 29 28 27 25 24 22 22 22 25 25 23 23 24 24 23 22 20 18 16 15 14 12 12 11 10 10 10 11 12 14 15 16 15 14 13 14 18 22 26 29 30 31 32 32 32 31 30 31 29
24 24 24 24 25 27 28 29 30 30 29 29 29 30 30 32 36 40 40 39 38 40 41 40 39 39 37 36 35 34 33 31 30 30 29 28 27 26 25 25 24 22 21 21 23 24 24 23 22 19 18 18 16 14 15 16 16 16 15 14 13 11 10 10 11 13 15 15 15 14 12 11 10 13 16 19 21 25 29 32 33 32 32 32 29
24 24 25 26 26 26 28 30 31 32 32 30 30 31 32 34 38 40 39 39 39 39 39 38 38 38 36 35 34 34 33 31 30 29 28 27 26 25 24 23 21 21 22 22 22 23 24 23 21 18 16 17 16 15 15 16 16 16 16 16 15 14 13 11 9 9 11 13 13 12 12 11 11 11 12 13 14 14 16 20 25 27 28 28 26
23 24 26 27 26 26 28 29 30 33 34 32 33 34 34 36 38 38 38 39 38 38 37 37 37 36 34 34 33 33 34 33 31 30 28 28 28 26 24 23 22 24 25 23 21 21 22 21 19 18 19 18 19 19 18 18 19 18 17 16 16 15 15 13 11 9 8 8 10 11 11 11 12 13 13 13 14 14 12 12 15 18 20 22 23
22 24 26 26 25 27 28 28 29 32 33 33 34 36 36 36 37 37 37 38 38 37 35 35 34 33 32 32 31 32 33 33 33 31 28 27 27 26 24 22 21 22 23 22 20 20 21 21 19 17 18 19 19 20 21 21 20 20 19 18 16 15 14 13 12 11 10 7 7 9 10 10 12 12 13 12 12 13 14 15 15 15 15 17 22
23 23 24 25 26 28 29 29 30 31 30 31 34 36 36 37 37 37 37 38 39 38 35 33 32 30 30 31 31 30 30 31 32 33 32 29 25 22 21 21 22 22 22 21 20 20 22 23 20 17 18 18 18 20 22 21 20 18 18 18 17 15 14 12 11 11 10 6 4 5 6 8 9 10 12 13 12 13 14 16 18 18 16 15 18
23 24 24 25 27 28 29 30 30 29 29 31 34 35 35 36 36 36 37 38 39 37 33 31 30 30 30 30 30 30 30 30 30 31 33 33 30 24 19 20 23 24 22 20 21 21 23 24 22 19 18 18 18 20 22 21 20 19 17 17 17 16 14 12 10 8 7 4 3 2 2 1 3 5 7 9 10 11 12 13 14 16 18 18 18
23 23 25 27 29 30 30 31 32 31 30 32 34 35 35 36 36 36 38 38 37 34 31 30 30 30 29 29 28 29 30 30 29 28 28 30 32 31 26 23 24 24 22 22 22 23 23 24 23 22 20 19 20 22 23 22 21 19 17 16 17 16 14 12 9 6 5 8 8 7 7 6 4 2 3 4 5 7 9 10 10 11 14 17 18
Wind_Direction
37 33 28 15 4 357 351 347 348 351 343 328 331 335 337 342 346 352 358 359 0 359 351 345 345 347 347 347 344 342 339 337 337 338 338 337 334 331 327 322 322 322 320 321 321 318 316 313 308 305 302 298 295 296 296 293 286 277 274 277 285 292 294 299 307 302 296 295 294 289 277 265 260 257 251 246 243 242 240 237 234 231 230 228 225
27 16 11 6 352 344 338 332 335 338 328 312 310 312 314 323 333 343 351 354 357 354 344 340 339 338 340 342 343 343 343 340 337 336 336 334 331 327 322 317 315 314 313 316 317 314 313 308 303 301 299 295 291 289 288 287 284 278 276 276 275 280 284 286 296 298 287 285 295 296 283 266 256 252 250 246 242 241 238 237 235 231 230 229 227
11 355 350 345 334 331 326 320 320 321 314 296 289 290 293 303 313 327 340 346 348 345 338 336 333 331 332 336 342 344 345 343 339 339 339 337 333 328 320 314 312 310 308 311 311 310 309 304 298 296 294 293 290 286 285 283 282 279 279 283 281 279 278 276 282 282 272 276 288 282 275 269 256 247 244 244 240 237 236 235 234 233 231 230 228
345 332 317 314 312 312 312 311 307 306 303 292 285 283 284 290 297 308 324 331 333 331 329 330 328 327 327 330 337 340 341 341 341 342 342 340 337 333 324 314 308 304 303 305 306 305 305 300 293 290 290 290 289 289 288 287 286 285 283 286 288 284 278 273 272 273 268 268 271 258 260 264 255 238 238 244 241 234 233 234 233 234 233 230 228
319 310 297 295 294 293 296 298 296 293 292 290 286 281 279 283 288 294 306 314 318 318 318 319 318 318 319 324 331 336 338 339 340 339 338 337 335 332 326 315 305 301 299 299 299 299 299 296 289 283 285 284 285 287 288 289 288 289 292 291 290 286 282 278 273 269 265 260 253 251 264 258 251 295 292 253 239 232 232 232 231 233 233 230 228
289 284 282 280 279 281 284 287 288 284 285 287 285 279 274 276 279 283 291 300 308 311 310 307 304 307 311 318 327 332 333 333 334 331 330 331 329 327 324 315 305 300 297 294 293 293 292 291 286 278 278 278 279 281 281 283 284 284 289 292 294 291 289 285 276 269 265 261 253 248 254 260 272 318 324 281 242 234 233 231 230 231 232 231 230
274 268 270 271 273 276 277 281 282 279 282 285 283 277 271 270 271 274 282 292 301 305 303 297 295 298 302 308 316 318 316 318 323 324 323 324 323 323 322 313 302 297 295 292 289 288 285 285 282 275 274 274 273 275 274 276 278 277 279 284 290 293 294 289 278 273 268 263 257 252 253 258 263 272 271 277 291 250 236 234 233 231 230 229 230
272 270 270 272 275 279 280 283 284 282 283 284 282 279 273 268 268 270 276 284 292 295 294 292 291 293 295 300 307 309 308 309 315 319 319 320 320 320 318 309 300 295 293 290 287 285 280 278 276 270 268 268 268 270 271 272 275 276 277 279 283 288 292 290 280 275 268 263 263 261 257 256 258 258 253 254 268 277 259 245 237 235 233 230 230
274 273 273 279 285 288 289 290 290 288 287 285 284 283 278 271 266 267 270 275 281 286 289 291 290 290 290 295 303 307 308 308 312 314 315 318 317 317 314 305 297 294 293 291 287 283 278 273 269 262 260 262 262 266 269 271 275 279 282 283 285 287 289 290 286 277 267 263 263 264 260 256 257 256 251 244 239 255 264 257 240 232 234 236 234
290 287 283 288 295 300 303 302 299 296 292 291 290 289 285 277 269 266 268 270 275 281 286 288 286 283 283 291 302 308 311 312 314 313 313 316 315 314 310 300 294 294 295 293 288 282 278 271 262 255 255 257 259 265 268 271 274 279 285 287 289 290 289 289 287 280 272 266 261 260 257 253 253 254 248 237 233 242 250 260 252 212 228 241 237
310 304 299 303 311 316 317 312 305 300 295 293 293 292 290 284 273 266 265 269 274 279 282 280 273 269 276 291 303 308 313 314 314 313 314 315 313 311 305 295 291 292 294 295 290 281 275 267 255 251 252 253 257 263 266 269 274 280 287 291 292 292 292 291 288 282 275 268 261 256 253 249 248 248 245 237 233 234 237 253 249 227 237 247 242
312 313 318 326 328 325 322 319 315 311 306 302 299 297 295 288 279 270 266 268 274 280 280 272 261 262 282 301 309 312 315 314 312 311 312 312 310 307 300 291 288 288 291 300 299 285 273 266 257 252 251 252 257 263 268 273 279 284 288 291 294 294 294 294 290 284 275 266 262 257 252 250 249 248 248 243 239 240 241 245 241 230 239 249 249
325 338 340 333 327 326 329 332 333 329 323 318 313 309 304 297 288 277 269 270 281 287 281 267 260 280 308 316 318 319 316 313 310 308 307 307 305 301 295 288 285 284 289 303 310 301 285 277 269 260 256 258 264 268 274 281 286 291 292 293 294 293 294 293 289 284 274 263 261 260 255 253 251 249 249 248 246 247 246 247 244 234 237 252 247
348 345 334 328 331 338 341 341 340 337 333 329 327 326 323 317 308 294 283 288 296 294 284 279 300 320 325 324 322 319 315 311 308 307 306 303 300 296 290 284 278 278 288 297 300 296 287 278 270 266 264 267 271 275 280 284 288 292 293 294 294 290 290 289 286 285 275 263 259 259 256 255 252 250 249 247 246 246 245 245 246 241 240 247 241
349 337 336 342 346 346 345 346 348 347 345 344 345 345 342 336 328 318 308 309 314 319 328 333 332 330 327 324 320 316 313 310 308 306 304 300 296 293 287 282 280 282 288 290 289 288 285 282 281 281 279 278 278 279 282 285 287 290 292 294 292 288 286 284 284 283 274 264 258 255 255 255 253 251 248 245 243 243 244 242 239 241 242 237 227
340 339 348 350 349 350 353 355 355 352 349 348 346 344 341 335 329 324 320 329 345 351 346 338 332 328 324 321 319 317 314 311 307 305 301 297 294 289 284 283 284 285 284 282 283 285 286 290 292 291 290 288 284 283 284 285 286 289 291 291 288 285 282 280 279 277 269 261 257 254 253 253 251 249 248 247 245 243 243 241 236 234 239 243 229
344 352 352 350 354 1 2 356 351 347 341 338 336 335 333 328 325 329 339 348 351 346 340 335 330 326 324 323 321 318 314 310 306 303 300 296 293 289 287 286 285 283 282 283 285 286 289 297 300 298 295 293 288 285 284 283 285 287 288 286 282 280 278 276 275 272 264 259 256 253 251 250 250 248 247 248 247 245 243 241 238 234 235 241 243
351 351 350 356 1 2 354 346 343 341 336 334 336 337 336 333 332 344 351 348 345 341 336 331 328 327 327 325 321 316 312 308 305 303 300 296 292 292 294 296 294 291 292 295 296 295 296 297 297 297 295 293 289 285 282 282 282 283 282 279 277 276 274 271 271 268 262 258 255 252 249 248 248 247 247 247 246 246 244 241 239 236 234 236 244
350 347 354 360 357 348 341 339 341 341 340 340 340 338 337 338 341 346 345 341 338 335 332 330 330 329 325 321 316 313 311 309 307 305 303 299 296 296 297 298 297 295 295 297 297 297 296 294 293 292 289 286 284 282 278 276 276 276 276 274 273 273 268 265 267 265 260 258 254 251 247 246 245 244 246 247 246 245 243 241 239 236 234 235 239
349 348 354 348 344 341 339 342 346 343 341 342 339 334 332 335 338 336 334 335 336 335 334 333 330 325 320 316 315 312 311 310 308 308 306 303 302 302 302 302 300 297 295 294 293 293 291 288 286 284 281 276 275 275 274 272 271 272 273 271 271 269 262 257 260 260 258 256 254 251 248 246 244 242 243 243 242 242 241 239 237 235 234 234 236
348 349 346 339 340 342 344 348 347 342 339 339 337 334 332 333 334 333 333 337 339 338 335 329 324 321 318 317 316 313 311 310 310 311 309 307 308 307 304 303 300 296 293 290 287 286 284 282 278 276 274 271 268 269 269 269 269 270 270 269 269 265 256 251 254 258 259 256 253 251 249 247 245 243 241 238 237 238 238 235 232 233 234 233 234
350 343 337 337 341 345 347 346 343 340 338 338 338 336 335 335 336 339 341 340 337 333 329 325 322 321 320 318 317 314 313 312 312 313 311 309 308 306 304 301 297 293 290 286 284 282 279 277 274 272 270 269 267 265 264 265 266 265 264 263 261 256 251 251 254 258 257 256 254 251 249 247 245 244 242 238 235 234 233 229 227 226 228 231 232
349 336 332 340 346 346 345 341 339 339 340 340 339 339 341 340 340 339 337 334 331 328 327 326 325 323 322 321 319 317 315 313 312 311 309 308 305 303 301 297 294 291 288 284 281 279 279 277 276 274 272 269 267 263 262 262 262 260 258 258 258 254 252 254 258 260 257 252 250 249 248 246 242 242 241 238 234 233 231 226 223 222 223 227 230
345 338 340 354 355 348 343 341 341 343 343 342 340 338 338 339 338 336 332 331 331 331 330 330 327 325 323 322 321 319 314 311 311 310 308 306 303 301 299 296 293 292 289 285 282 280 281 281 280 278 274 269 265 261 260 260 259 256 255 259 262 261 260 260 262 268 268 261 252 247 246 245 241 239 238 236 231 229 230 227 223 221 223 227 230
343 343 355 5 356 346 340 340 344 345 342 339 337 334 333 334 336 336 334 333 333 332 331 329 328 326 325 323 321 319 316 312 311 309 308 305 303 301 298 296 294 292 289 287 285 283 283 282 281 280 277 270 265 268 272 273 270 267 266 265 264 266 269 265 263 268 272 273 268 255 246 243 242 239 235 232 229 224 225 228 226 223 224 228 231
343 349 1 359 349 343 339 342 345 342 338 337 335 334 336 336 336 336 335 334 333 332 332 330 329 328 326 324 323 321 320 318 315 313 311 309 306 303 300 298 295 293 291 288 286 284 283 281 279 280 281 279 281 284 284 282 280 277 274 271 268 269 271 268 265 266 269 273 277 273 259 245 239 239 235 230 228 224 222 224 225 224 225 227 230
343 354 357 349 344 342 343 347 344 338 336 336 335 336 338 337 335 335 335 335 334 333 332 331 329 328 326 326 326 324 322 320 319 318 316 314 311 308 305 302 297 294 291 287 285 283 281 281 278 278 278 280 283 283 281 280 280 278 275 273 271 269 268 268 267 266 268 272 274 278 274 255 239 236 236 231 227 223 220 222 224 224 225 225 227
347 355 351 347 344 342 345 344 339 337 337 336 336 336 337 335 334 335 335 335 335 333 332 331 329 328 328 327 326 324 322 321 320 319 317 316 314 311 308 305 301 297 293 289 287 284 282 280 278 276 276 278 280 279 277 275 274 273 271 269 269 267 267 269 269 267 268 272 273 275 279 267 244 236 235 231 226 221 218 222 225 224 224 224 225
350 353 348 345 343 343 345 341 337 337 337 336 337 336 335 335 334 335 335 334 334 332 331 330 328 327 326 325 325 323 322 322 320 319 318 315 313 312 309 307 303 299 295 291 288 285 282 281 280 279 279 278 277 275 273 270 267 266 265 264 264 264 265 267 269 268 267 269 273 274 275 272 256 242 237 232 228 224 221 221 223 221 222 223 223
349 349 345 344 341 342 342 339 337 337 336 336 336 335 334 334 333 334 334 333 333 331 330 329 328 326 325 324 324 323 322 321 320 318 316 314 313 311 308 306 303 299 296 293 289 284 280 279 280 280 279 278 276 273 269 264 260 259 259 259 260 261 262 264 264 264 265 266 269 270 269 271 267 252 240 232 228 228 227 226 227 224 222 221 220
348 345 343 342 340 340 340 339 337 336 335 336 334 333 333 332 332 332 332 332 332 331 329 329 327 325 324 324 323 323 322 320 319 317 316 314 313 311 308 306 304 300 297 294 290 285 282 280 280 278 277 276 275 274 269 262 258 254 252 253 254 256 258 259 259 258 260 264 266 266 268 270 270 261 245 233 229 230 230 231 232 231 229 227 224
345 342 342 341 340 339 339 338 336 334 335 335 333 332 332 331 331 331 330 331 331 329 328 327 325 325 325 325 324 323 321 319 318 318 317 315 313 311 310 307 304 302 300 297 292 288 287 288 288 285 282 279 278 277 269 262 259 254 249 248 247 249 251 252 254 255 254 256 260 264 267 268 269 265 252 239 234 232 232 232 233 233 232 232 231
342 339 340 340 339 338 336 335 334 333 333 333 332 331 330 329 329 329 329 329 328 328 327 325 324 324 324 325 324 323 321 319 319 318 318 317 315 313 312 311 308 306 304 301 297 295 294 294 292 288 287 286 285 283 274 265 262 257 250 247 245 245 245 245 249 250 249 250 252 256 262 264 265 264 255 242 236 234 234 233 233 232 232 233 233
340 337 338 338 336 334 334 334 333 332 331 331 331 330 328 327 327 328 329 328 327 327 327 325 325 325 324 325 325 324 322 320 319 319 317 317 317 315 315 317 314 310 308 306 304 302 300 298 295 293 293 293 293 293 284 271 266 260 253 248 244 243 243 243 244 246 246 247 247 248 252 257 260 261 256 244 236 234 233 231 229 229 230 233 234
339 336 337 337 335 333 333 333 332 331 331 330 330 330 328 327 328 328 328 328 328 327 326 326 326 326 326 326 326 324 323 320 320 320 318 319 321 319 321 323 320 316 314 311 309 308 306 306 305 302 300 299 302 304 295 280 272 266 258 251 246 243 241 240 241 242 243 244 245 244 244 248 254 257 255 246 235 231 230 228 226 225 226 230 234
335 334 335 334 333 332 332 331 330 329 330 330 330 330 328 327 328 329 328 328 328 327 327 327 327 326 326 327 327 325 323 323 323 322 322 323 324 323 325 327 325 323 321 317 316 315 314 315 315 310 304 304 309 314 306 292 284 278 270 258 248 242 239 238 239 239 239 240 242 241 240 242 247 251 253 247 233 225 226 225 224 225 226 227 231
333 332 332 331 330 331 330 329 328 328 329 330 329 329 328 327 329 329 329 329 329 328 328 328 327 326 326 326 327 326 325 325 325 325 325 325 325 325 327 329 326 324 323 322 322 321 319 318 319 317 312 308 313 321 316 303 296 293 292 281 260 245 239 238 239 237 235 235 237 238 237 237 241 246 248 242 228 218 220 223 224 228 229 228 231
332 331 331 331 330 330 330 328 328 328 328 329 328 329 329 328 329 330 330 330 329 329 329 328 327 326 325 326 327 327 326 326 326 326 326 325 325 326 328 329 327 324 323 324 324 323 323 322 320 321 319 311 312 322 323 309 301 298 299 301 293 267 245 238 237 236 233 232 233 235 234 232 234 238 239 235 223 215 218 222 225 228 230 231 232
332 331 331 331 330 329 329 329 329 327 327 328 329 330 330 329 329 330 330 330 330 330 329 327 325 325 324 325 327 327 327 326 326 327 326 325 325 327 329 330 328 324 323 324 325 324 325 327 326 325 325 316 312 322 328 319 309 303 297 297 302 298 268 243 235 233 232 231 232 234 233 230 230 233 234 233 228 222 219 222 226 227 229 232 232
331 332 331 330 330 330 329 330 329 327 327 329 330 330 331 330 330 330 329 330 330 328 327 325 324 324 325 326 328 328 328 328 327 327 327 328 328 328 330 331 329 327 326 325 327 324 322 325 327 325 327 325 321 326 332 328 317 305 298 295 292 296 293 266 244 234 229 228 230 232 233 230 228 230 232 232 230 226 223 225 226 223 225 231 230
330 331 332 331 331 330 329 329 328 327 328 330 331 331 331 330 330 329 329 329 328 326 326 325 324 325 326 327 329 329 329 329 330 329 329 330 332 332 331 331 329 329 327 326 328 326 320 323 327 327 331 337 336 333 333 332 326 309 297 295 291 290 294 292 275 249 232 226 226 228 232 232 227 226 227 228 227 226 226 227 228 228 232 235 231
330 331 333 332 330 330 329 328 328 328 330 331 332 331 330 329 329 328 328 327 327 327 327 327 327 328 329 329 330 331 332 332 332 333 331 331 334 336 334 332 330 329 328 328 331 331 327 327 331 333 336 342 344 340 335 330 325 314 302 295 291 289 287 287 285 272 250 237 231 229 232 233 229 224 223 225 226 226 227 229 232 234 236 235 231
330 332 333 332 330 329 329 328 328 329 331 332 332 331 329 329 327 328 329 329 328 328 328 328 329 330 330 331 331 333 335 334 335 336 333 331 335 337 335 334 332 330 330 331 332 333 331 330 331 334 338 343 350 356 358 352 335 322 313 304 296 290 284 277 273 270 266 263 256 245 239 237 231 226 223 224 226 227 228 230 232 233 234 231 228
329 331 332 332 330 329 328 327 327 329 331 332 332 330 329 327 327 329 331 331 329 330 330 330 330 331 331 333 333 334 336 337 337 338 336 334 336 337 335 336 338 335 331 331 332 333 333 332 331 330 335 343 356 11 21 19 8 357 347 336 322 306 291 278 270 268 266 268 268 266 261 249 235 226 224 225 228 228 229 230 231 230 230 227 222
326 329 331 332 329 327 327 326 327 329 331 333 333 331 328 327 329 332 333 332 331 331 331 330 331 331 332 333 334 335 337 339 340 340 339 336 336 337 336 336 338 337 334 334 337 338 336 334 332 329 330 340 355 15 26 21 15 10 5 359 352 338 318 298 280 268 264 266 267 266 266 260 244 232 227 226 228 229 229 231 232 230 229 225 217
325 328 330 331 328 327 328 327 328 331 333 333 334 333 330 328 331 334 334 333 333 332 332 331 331 332 334 334 335 336 338 339 341 342 341 339 338 337 335 334 337 339 339 339 341 341 339 338 341 346 350 358 8 15 17 14 9 6 4 2 360 356 349 338 318 289 272 266 262 258 256 255 254 249 241 236 237 236 233 232 232 230 229 223 212
325 327 329 329 328 328 329 327 327 331 333 334 334 335 334 333 334 335 335 335 335 334 332 332 332 333 334 336 336 337 337 338 341 343 343 342 342 341 337 336 341 342 340 340 342 342 340 340 349 359 5 9 12 10 7 7 5 2 1 2 1 360 357 354 349 338 316 287 266 257 252 252 252 251 247 244 242 241 241 238 234 232 230 222 212
323 325 327 328 328 328 328 326 325 328 331 333 334 335 336 337 337 338 337 336 336 335 333 332 333 334 335 336 336 336 337 337 339 340 341 340 342 342 339 340 344 342 338 340 344 344 343 342 350 4 8 7 8 6 2 2 2 360 359 358 358 359 358 354 352 348 339 315 280 265 260 258 254 244 238 240 240 238 240 241 241 241 236 227 219
323 325 326 327 327 327 326 325 325 327 329 331 334 335 338 340 340 340 340 338 336 336 335 334 335 335 335 336 336 336 337 337 338 340 341 341 342 343 340 343 346 345 343 347 350 352 353 352 356 6 11 8 6 2 358 359 0 1 1 360 357 354 351 349 347 343 337 324 288 269 268 269 261 240 226 227 233 233 233 235 238 241 241 235 225
323 325 326 327 327 327 326 326 326 327 328 331 333 336 339 341 342 342 342 340 338 336 336 336 336 336 336 337 336 336 338 339 338 339 341 343 347 350 349 348 348 347 349 356 359 360 3 3 4 9 14 12 8 3 1 2 4 2 3 6 5 358 352 349 345 339 341 1 39 48 29 332 268 226 205 207 216 215 212 216 228 235 237 238 232
324 326 327 328 329 330 329 328 328 329 330 331 333 336 340 342 343 344 344 342 340 338 336 336 336 336 336 336 335 336 337 338 338 339 339 340 343 347 349 351 351 351 354 359 3 6 9 11 10 11 12 12 11 8 6 7 8 7 8 11 13 12 10 5 358 1 34 51 54 54 51 50 61 100 139 173 193 196 196 203 215 224 227 227 222